Погода в Тоунане

Россия / Республика Карелия     61°18′54″N   29°32′54″E
темп.,
°C
ветер,
м/с
пор.,
м/с
влажн.,
%
обл.,
%
осадки,
мм/ч
давл.,
гПа
погр.,
м
13 апреля, вт
вт1300:00+9ююв2118099 0.0 1018278
03:00+8ю2883100 0.0 1017223
06:00+8ююз398486 0.0 1017302
09:00+8ююз3880100 0.0 1017291
12:00+8юз368667 0.1 1018395
15:00+8юз3680100 0.1 1019501
18:00+8юз2582100 0.0 1019553
21:00+6юз2489100 0.0 1019202
14 апреля, ср
ср1400:00+5юз2587100 0.1 1019202
03:00+4юз2482100 0.3 1019191
06:00+3з2480100 0.0 1019178
09:00+5зсз356077 0.0 1019518
12:00+7зсз355041 0.0 10201207
15:00+8зсз45425 0.0 10211426
18:00+8сз354441 0.0 10221478
21:00+3с387087 0.0 1025381
15 апреля, чт
чт1500:00+1с238380 0.0 102668
03:00−1с248352 0.0 1027100
06:00−1с2683100 0.0 1028139
09:00+4ссв246099 0.0 1030501
12:00+7ссв23420 0.0 10301186
15:00+8ссв34360 0.0 10301336
18:00+8ссв34390 0.0 10301146
21:00
16 апреля, пт
пт1600:00+1ссв24700 0.0 103171
03:000ссв227513 0.0 103128
06:000ссв22755 0.0 103225
09:00+5св245821 0.0 1032352
12:00+9св24505 0.0 10321035
15:00+11всв34445 0.0 10321372
18:00+11всв35465 0.0 10321209
21:00+6св266939 0.0 1035116
17 апреля, сб
сб1700:00+4св28795 0.0 1034159
03:00+2всв248518 0.0 103567
06:00+1всв24885 0.0 103769
09:00+6в25635 0.0 1037356
12:00+10в34495 0.0 1037973
15:00+11в34435 0.0 10371234
18:00+10вюв23465 0.0 1036598
21:00+6всв00655 0.0 103610